TVS6P7 LPMA-LKPR

Flight info

Callsign TVS6P7
Flight time N/A
Altitude 34000
Route DEGUN DCT ROLAR DCT TUNAV DCT IBIDO/N0444F360 DCT DEMOS DCT LOTEE DCT AZFIC UN741 NTS DCT GONEK DCT TABOV UN858 OQQAL DCT RANUX/N0440F370 DCT VALEK DCT LIPNI UN858 LIMGO DCT BOMBI DCT BOREP DCT TONSU Z35 ODOMO DCT LOMKI
Aircraft B738/M-SDFGHIJ1LORVWXYZ/LB1

Departure

Time 2026-05-01 13:21
Airport Cristiano Ronaldo International Airport (LPMA)

Arrival

Time N/A
Airport Václav Havel Airport Prague (LKPR)
Time Latitude Longitude Altitude Speed Heading
2026-05-01 12:56 32.69467 -16.77522 175 ft 0 kts 137°
2026-05-01 13:11 32.69474 -16.77530 175 ft 3 kts 135°
2026-05-01 13:11 32.69488 -16.77548 175 ft 3 kts 125°
2026-05-01 13:11 32.69498 -16.77568 175 ft 3 kts 108°
2026-05-01 13:11 32.69502 -16.77589 175 ft 3 kts 75°
2026-05-01 13:12 32.69496 -16.77603 175 ft 1 kts 46°
2026-05-01 13:12 32.69494 -16.77607 175 ft 0 kts 46°
2026-05-01 13:14 32.69502 -16.77596 175 ft 4 kts 47°
2026-05-01 13:15 32.69539 -16.77549 175 ft 11 kts 47°
2026-05-01 13:15 32.69604 -16.77467 175 ft 16 kts 45°
2026-05-01 13:15 32.69688 -16.77364 175 ft 19 kts 46°
2026-05-01 13:15 32.69775 -16.77255 175 ft 7 kts 45°
2026-05-01 13:16 32.69807 -16.77216 175 ft 7 kts 45°
2026-05-01 13:16 32.69843 -16.77181 175 ft 4 kts 22°
2026-05-01 13:17 32.69878 -16.77177 175 ft 9 kts 359°
2026-05-01 13:17 32.69945 -16.77178 175 ft 10 kts 360°
2026-05-01 13:18 32.70059 -16.77129 175 ft 9 kts 45°
2026-05-01 13:18 32.70102 -16.77077 175 ft 9 kts 46°
2026-05-01 13:18 32.70147 -16.77022 175 ft 12 kts 44°
2026-05-01 13:18 32.70224 -16.76934 175 ft 20 kts 44°
2026-05-01 13:19 32.70351 -16.76789 175 ft 29 kts 45°
2026-05-01 13:19 32.70495 -16.76618 175 ft 28 kts 44°
2026-05-01 13:19 32.70687 -16.76430 175 ft 9 kts 123°
2026-05-01 13:20 32.70678 -16.76424 175 ft 0 kts 155°
2026-05-01 13:20 32.70645 -16.76441 175 ft 19 kts 223°
2026-05-01 13:21 32.69666 -16.77580 188 ft 169 kts 221°
2026-05-01 13:21 32.68785 -16.78607 876 ft 182 kts 223°
2026-05-01 13:21 32.67767 -16.79347 2051 ft 174 kts 195°
2026-05-01 13:21 32.66553 -16.79209 2808 ft 183 kts 171°
2026-05-01 13:22 32.65202 -16.78938 3147 ft 206 kts 175°
2026-05-01 13:22 32.64242 -16.78760 3389 ft 219 kts 174°
2026-05-01 13:22 32.62680 -16.78445 3743 ft 238 kts 173°
2026-05-01 13:22 32.60959 -16.78101 4143 ft 258 kts 173°
2026-05-01 13:23 32.59284 -16.77290 4914 ft 269 kts 143°
2026-05-01 13:23 32.58143 -16.75518 5833 ft 276 kts 118°
2026-05-01 13:23 32.57677 -16.73260 6564 ft 290 kts 95°
2026-05-01 13:23 32.57978 -16.70869 7283 ft 300 kts 72°
2026-05-01 13:24 32.58827 -16.68587 8002 ft 305 kts 64°
2026-05-01 13:24 32.59820 -16.66344 8761 ft 309 kts 62°
2026-05-01 13:24 32.60835 -16.64078 9510 ft 313 kts 63°
2026-05-01 13:25 32.62864 -16.59351 10487 ft 340 kts 63°
2026-05-01 13:25 32.63947 -16.56763 10697 ft 360 kts 63°
2026-05-01 13:25 32.65194 -16.54135 11150 ft 370 kts 50°
2026-05-01 13:25 32.66999 -16.51953 11817 ft 371 kts 41°
2026-05-01 13:26 32.68890 -16.49850 12513 ft 374 kts 41°
2026-05-01 13:26 32.70804 -16.47723 13159 ft 379 kts 41°
2026-05-01 13:26 32.72733 -16.45566 13802 ft 383 kts 41°
2026-05-01 13:26 32.74678 -16.43376 14386 ft 387 kts 41°
2026-05-01 13:27 32.76638 -16.41155 14951 ft 392 kts 41°
2026-05-01 13:27 32.78617 -16.38903 15510 ft 396 kts 41°
2026-05-01 13:27 32.82635 -16.34312 16610 ft 405 kts 41°
2026-05-01 13:28 32.86729 -16.29623 17721 ft 413 kts 42°
2026-05-01 13:28 32.88781 -16.27269 18225 ft 419 kts 41°
2026-05-01 13:29 32.93020 -16.22403 19168 ft 426 kts 41°
2026-05-01 13:29 32.97313 -16.17467 20179 ft 432 kts 41°
2026-05-01 13:30 33.06096 -16.07351 22043 ft 446 kts 41°
2026-05-01 13:31 33.10579 -16.02176 22949 ft 452 kts 41°
2026-05-01 13:31 33.17417 -15.94265 24179 ft 461 kts 41°
2026-05-01 13:32 33.22041 -15.88906 24896 ft 466 kts 40°
2026-05-01 13:33 33.29064 -15.80750 25982 ft 473 kts 40°
2026-05-01 13:33 33.33810 -15.75228 26654 ft 478 kts 40°
2026-05-01 13:34 33.38593 -15.69652 27306 ft 483 kts 40°
2026-05-01 13:34 33.43423 -15.64014 27945 ft 487 kts 40°
2026-05-01 13:35 33.48298 -15.58320 28582 ft 491 kts 40°
2026-05-01 13:35 33.50750 -15.55454 28849 ft 494 kts 39°
2026-05-01 13:35 33.56339 -15.50956 29343 ft 483 kts 16°
2026-05-01 13:36 33.59472 -15.49543 29665 ft 481 kts 13°
2026-05-01 13:36 33.62618 -15.48150 29958 ft 483 kts 14°
2026-05-01 13:36 33.68931 -15.45270 30510 ft 486 kts 14°
2026-05-01 13:37 33.72079 -15.43799 30849 ft 485 kts 15°
2026-05-01 13:37 33.75219 -15.42320 31199 ft 484 kts 15°
2026-05-01 13:37 33.78348 -15.40843 31507 ft 484 kts 14°
2026-05-01 13:37 33.81490 -15.39360 31726 ft 485 kts 14°
2026-05-01 13:38 33.87772 -15.36395 32344 ft 484 kts 14°
2026-05-01 13:38 33.90901 -15.34916 32672 ft 483 kts 14°
2026-05-01 13:38 33.94024 -15.33440 32948 ft 482 kts 14°
2026-05-01 13:39 33.97152 -15.31962 33203 ft 483 kts 14°
2026-05-01 13:39 34.00276 -15.30485 33469 ft 483 kts 14°
2026-05-01 13:39 34.03399 -15.29006 33772 ft 482 kts 14°
2026-05-01 13:39 34.06526 -15.27524 33983 ft 483 kts 14°
2026-05-01 13:40 34.09655 -15.26041 34167 ft 484 kts 14°
2026-05-01 13:40 34.15958 -15.23048 34163 ft 487 kts 14°
2026-05-01 13:41 34.22201 -15.19963 34144 ft 486 kts 20°
2026-05-01 13:41 34.28127 -15.15963 34152 ft 488 kts 24°
2026-05-01 13:42 34.33958 -15.11758 34160 ft 488 kts 24°
2026-05-01 13:42 34.39801 -15.07585 34163 ft 487 kts 23°
2026-05-01 13:43 34.45663 -15.03461 34155 ft 487 kts 23°
2026-05-01 13:43 34.51542 -14.99346 34159 ft 488 kts 23°
2026-05-01 13:44 34.57395 -14.95245 34173 ft 490 kts 23°
2026-05-01 13:44 34.63308 -14.91093 34156 ft 492 kts 23°
2026-05-01 13:45 34.69240 -14.86917 34155 ft 493 kts 23°
2026-05-01 13:45 34.75187 -14.82722 34154 ft 494 kts 23°
2026-05-01 13:46 34.81139 -14.78517 34151 ft 495 kts 23°
2026-05-01 13:46 34.87094 -14.74303 34160 ft 496 kts 23°
2026-05-01 13:47 34.93059 -14.70075 34155 ft 496 kts 23°
2026-05-01 13:47 34.99022 -14.65841 34155 ft 496 kts 23°
2026-05-01 13:48 35.04981 -14.61602 34147 ft 495 kts 23°
2026-05-01 13:48 35.10927 -14.57366 34146 ft 495 kts 23°
2026-05-01 13:49 35.16871 -14.53124 34146 ft 494 kts 24°
2026-05-01 13:49 35.22801 -14.48885 34137 ft 494 kts 24°
2026-05-01 13:50 35.28689 -14.44669 34142 ft 493 kts 24°
2026-05-01 13:50 35.34609 -14.40422 34139 ft 493 kts 24°
2026-05-01 13:51 35.40527 -14.36171 34161 ft 493 kts 24°
2026-05-01 13:51 35.46449 -14.31908 34155 ft 494 kts 24°
2026-05-01 13:52 35.52374 -14.27636 34145 ft 494 kts 24°
2026-05-01 13:52 35.58305 -14.23353 34146 ft 494 kts 24°
2026-05-01 13:53 35.64233 -14.19064 34142 ft 495 kts 24°
2026-05-01 13:53 35.73141 -14.12605 34149 ft 496 kts 25°
2026-05-01 13:54 35.79093 -14.08280 34143 ft 497 kts 25°
2026-05-01 13:54 35.85046 -14.03946 34142 ft 497 kts 25°
2026-05-01 13:55 35.91000 -13.99604 34142 ft 498 kts 25°
2026-05-01 13:55 35.96967 -13.95245 34143 ft 499 kts 25°
2026-05-01 13:56 36.02936 -13.90877 34147 ft 499 kts 25°
2026-05-01 13:56 36.08909 -13.86498 34144 ft 499 kts 25°
2026-05-01 13:57 36.13868 -13.82856 34148 ft 499 kts 25°
2026-05-01 13:57 36.20834 -13.77731 34159 ft 498 kts 25°
2026-05-01 13:58 36.26754 -13.73367 34144 ft 498 kts 25°
2026-05-01 13:58 36.32709 -13.68970 34140 ft 498 kts 25°
2026-05-01 13:59 36.38653 -13.64573 34141 ft 497 kts 25°
2026-05-01 13:59 36.44589 -13.60174 34141 ft 497 kts 25°
2026-05-01 14:00 36.50524 -13.55769 34147 ft 497 kts 25°
2026-05-01 14:00 36.56462 -13.51352 34147 ft 497 kts 25°
2026-05-01 14:01 36.62435 -13.46901 34146 ft 497 kts 25°
2026-05-01 14:01 36.68320 -13.42508 34139 ft 497 kts 25°
2026-05-01 14:02 36.74248 -13.38075 34155 ft 497 kts 25°
2026-05-01 14:02 36.80177 -13.33634 34148 ft 497 kts 25°
2026-05-01 14:03 36.86109 -13.29182 34143 ft 498 kts 25°
2026-05-01 14:03 36.92043 -13.24720 34141 ft 498 kts 25°
2026-05-01 14:04 36.97973 -13.20252 34173 ft 498 kts 25°
2026-05-01 14:04 37.02948 -13.16499 34148 ft 499 kts 25°
2026-05-01 14:05 37.09850 -13.11281 34138 ft 499 kts 25°
2026-05-01 14:05 37.15790 -13.06781 34146 ft 499 kts 25°
2026-05-01 14:06 37.21728 -13.02274 34141 ft 499 kts 25°
2026-05-01 14:06 37.27666 -12.97760 34153 ft 500 kts 25°
2026-05-01 14:07 37.33613 -12.93230 34145 ft 500 kts 25°
2026-05-01 14:08 37.42528 -12.86423 34139 ft 500 kts 25°
2026-05-01 14:08 37.48472 -12.81874 34142 ft 500 kts 25°
2026-05-01 14:09 37.54419 -12.77315 34150 ft 501 kts 26°
2026-05-01 14:09 37.60365 -12.72746 34141 ft 500 kts 26°
2026-05-01 14:10 37.65303 -12.68945 34145 ft 500 kts 26°
2026-05-01 14:10 37.71243 -12.64367 34141 ft 500 kts 26°
2026-05-01 14:11 37.77179 -12.59782 34142 ft 500 kts 26°
2026-05-01 14:11 37.86076 -12.52894 34138 ft 500 kts 26°
2026-05-01 14:12 37.92004 -12.48293 34140 ft 500 kts 26°
2026-05-01 14:12 37.97930 -12.43686 34141 ft 500 kts 26°
2026-05-01 14:13 38.03855 -12.39071 34139 ft 500 kts 26°
2026-05-01 14:13 38.09782 -12.34444 34143 ft 500 kts 26°
2026-05-01 14:14 38.15702 -12.29815 34144 ft 500 kts 26°
2026-05-01 14:14 38.21625 -12.25174 34144 ft 500 kts 26°
2026-05-01 14:15 38.27544 -12.20527 34161 ft 500 kts 27°
2026-05-01 14:15 38.33471 -12.15865 34157 ft 501 kts 27°
2026-05-01 14:16 38.39403 -12.11190 34151 ft 501 kts 27°
2026-05-01 14:16 38.45332 -12.06508 34133 ft 501 kts 27°
2026-05-01 14:17 38.51260 -12.01817 34159 ft 501 kts 27°
2026-05-01 14:17 38.57191 -11.97115 34143 ft 502 kts 27°
2026-05-01 14:18 38.63114 -11.92411 34143 ft 501 kts 27°
2026-05-01 14:18 38.68036 -11.88494 34145 ft 501 kts 27°
2026-05-01 14:19 38.74957 -11.82975 34148 ft 501 kts 27°
2026-05-01 14:19 38.80841 -11.78274 34154 ft 502 kts 27°
2026-05-01 14:20 38.89726 -11.71156 34149 ft 502 kts 27°
2026-05-01 14:21 38.95656 -11.66394 34151 ft 502 kts 27°
2026-05-01 14:21 39.01583 -11.61625 34170 ft 503 kts 27°
2026-05-01 14:22 39.10488 -11.54441 34144 ft 504 kts 27°
2026-05-01 14:22 39.16428 -11.49637 34149 ft 504 kts 27°
2026-05-01 14:23 39.22367 -11.44823 34149 ft 504 kts 27°
2026-05-01 14:23 39.28305 -11.40001 34152 ft 505 kts 27°
2026-05-01 14:24 39.34266 -11.35217 34153 ft 503 kts 25°
2026-05-01 14:24 39.40341 -11.30744 34130 ft 502 kts 24°
2026-05-01 14:25 39.46437 -11.26339 34148 ft 502 kts 24°
2026-05-01 14:25 39.52513 -11.21888 34159 ft 502 kts 24°
2026-05-01 14:26 39.61615 -11.15135 34161 ft 505 kts 25°
2026-05-01 14:27 39.67772 -11.10554 34168 ft 515 kts 25°
2026-05-01 14:27 39.74036 -11.05882 34197 ft 524 kts 25°
2026-05-01 14:28 39.83578 -10.98745 34163 ft 535 kts 25°
2026-05-01 14:28 39.90038 -10.93897 34122 ft 537 kts 25°
2026-05-01 14:29 39.96504 -10.89034 34185 ft 537 kts 25°
2026-05-01 14:30 40.09446 -10.79274 34155 ft 537 kts 25°
2026-05-01 14:31 40.19137 -10.71938 34159 ft 536 kts 25°
2026-05-01 14:31 40.25587 -10.67042 34154 ft 535 kts 25°
2026-05-01 14:32 40.32024 -10.62145 34152 ft 535 kts 25°
2026-05-01 14:32 40.38456 -10.57240 34141 ft 534 kts 25°
2026-05-01 14:33 40.44872 -10.52337 34172 ft 534 kts 25°
2026-05-01 14:33 40.51292 -10.47421 34160 ft 534 kts 25°
2026-05-01 14:34 40.57704 -10.42499 34158 ft 534 kts 25°
2026-05-01 14:34 40.64120 -10.37563 34158 ft 534 kts 25°
2026-05-01 14:35 40.70533 -10.32618 34171 ft 535 kts 26°
2026-05-01 14:35 40.76950 -10.27659 34166 ft 535 kts 26°
2026-05-01 14:36 40.83369 -10.22685 34158 ft 535 kts 26°
2026-05-01 14:36 40.89780 -10.17709 34187 ft 534 kts 26°
2026-05-01 14:37 40.96180 -10.12725 34160 ft 534 kts 26°
2026-05-01 14:37 41.02576 -10.07731 34157 ft 533 kts 26°
2026-05-01 14:38 41.08924 -10.02764 34164 ft 533 kts 26°
2026-05-01 14:38 41.15304 -9.97759 34177 ft 533 kts 26°
2026-05-01 14:39 41.21688 -9.92741 34161 ft 533 kts 26°
2026-05-01 14:39 41.28064 -9.87717 34155 ft 533 kts 26°
2026-05-01 14:40 41.34434 -9.82685 34126 ft 532 kts 26°
2026-05-01 14:40 41.40789 -9.77655 34167 ft 531 kts 27°
2026-05-01 14:41 41.47125 -9.72627 34156 ft 530 kts 27°
2026-05-01 14:41 41.53447 -9.67600 34158 ft 529 kts 27°
2026-05-01 14:42 41.59760 -9.62569 34178 ft 528 kts 27°
2026-05-01 14:42 41.66068 -9.57529 34157 ft 528 kts 27°
2026-05-01 14:43 41.72370 -9.52483 34158 ft 528 kts 27°
2026-05-01 14:43 41.78663 -9.47431 34158 ft 527 kts 27°
2026-05-01 14:44 41.84948 -9.42374 34158 ft 526 kts 27°
2026-05-01 14:44 41.94204 -9.34492 34143 ft 528 kts 38°
2026-05-01 14:45 42.02361 -9.24542 34155 ft 528 kts 41°
2026-05-01 14:46 42.07717 -9.17883 34162 ft 528 kts 40°
2026-05-01 14:46 42.15858 -9.07902 34130 ft 527 kts 40°
2026-05-01 14:47 42.21278 -9.01278 34149 ft 526 kts 40°
2026-05-01 14:48 42.29391 -8.91327 34160 ft 525 kts 40°
2026-05-01 14:48 42.37473 -8.81369 34155 ft 523 kts 40°
2026-05-01 14:49 42.48209 -8.68083 34147 ft 521 kts 41°
2026-05-01 14:50 42.58907 -8.54780 34816 ft 519 kts 41°
2026-05-01 14:51 42.61562 -8.51468 34997 ft 519 kts 41°
2026-05-01 14:51 42.66876 -8.44830 35287 ft 519 kts 41°
2026-05-01 14:52 42.72176 -8.38191 35718 ft 517 kts 41°
2026-05-01 14:52 42.74810 -8.34887 35941 ft 515 kts 41°
2026-05-01 14:52 42.80037 -8.28315 36146 ft 510 kts 42°
2026-05-01 14:53 42.82647 -8.25029 36139 ft 513 kts 42°
2026-05-01 14:53 42.87900 -8.18402 36143 ft 516 kts 42°
2026-05-01 14:54 42.93174 -8.11733 36143 ft 518 kts 42°
2026-05-01 14:54 42.98456 -8.05036 36144 ft 518 kts 42°
2026-05-01 14:55 43.03730 -7.98331 36135 ft 518 kts 42°
2026-05-01 14:55 43.08998 -7.91620 36123 ft 517 kts 42°
2026-05-01 14:56 43.13364 -7.86045 36112 ft 516 kts 42°
2026-05-01 14:56 43.18606 -7.79338 36136 ft 515 kts 43°
2026-05-01 14:57 43.23829 -7.72636 36123 ft 514 kts 43°
2026-05-01 14:57 43.31631 -7.62595 36131 ft 512 kts 43°
2026-05-01 14:58 43.36813 -7.55905 36130 ft 510 kts 43°
2026-05-01 14:58 43.41971 -7.49231 36119 ft 508 kts 44°
2026-05-01 14:59 43.47104 -7.42572 36129 ft 507 kts 44°
2026-05-01 14:59 43.52223 -7.35915 36140 ft 505 kts 44°
2026-05-01 15:00 43.59885 -7.25920 36140 ft 505 kts 44°
2026-05-01 15:01 43.64982 -7.19250 36143 ft 504 kts 45°
2026-05-01 15:01 43.70065 -7.12584 36140 ft 504 kts 45°
2026-05-01 15:02 43.75138 -7.05914 36145 ft 503 kts 45°
2026-05-01 15:02 43.80169 -6.99282 36142 ft 503 kts 45°
2026-05-01 15:03 43.85228 -6.92597 36152 ft 503 kts 45°
2026-05-01 15:03 43.90285 -6.85899 36144 ft 503 kts 45°
2026-05-01 15:04 43.95339 -6.79187 36130 ft 503 kts 45°
2026-05-01 15:04 44.00383 -6.72472 36142 ft 502 kts 45°
2026-05-01 15:05 44.05426 -6.65743 36157 ft 503 kts 45°
2026-05-01 15:05 44.10467 -6.58998 36152 ft 503 kts 45°
2026-05-01 15:06 44.15512 -6.52233 36153 ft 503 kts 45°
2026-05-01 15:06 44.20550 -6.45458 36134 ft 503 kts 45°
2026-05-01 15:07 44.25585 -6.38672 36155 ft 503 kts 45°
2026-05-01 15:07 44.30610 -6.31881 36151 ft 503 kts 45°
2026-05-01 15:08 44.35630 -6.25080 36152 ft 503 kts 45°
2026-05-01 15:08 44.40646 -6.18268 36155 ft 503 kts 45°
2026-05-01 15:09 44.45660 -6.11441 36171 ft 503 kts 45°
2026-05-01 15:09 44.50665 -6.04608 36149 ft 502 kts 45°
2026-05-01 15:10 44.55631 -5.97813 36153 ft 502 kts 45°
2026-05-01 15:10 44.63108 -5.87547 36160 ft 501 kts 45°
2026-05-01 15:11 44.70585 -5.77284 36163 ft 501 kts 45°
2026-05-01 15:12 44.75583 -5.70451 36142 ft 501 kts 45°
2026-05-01 15:12 44.83064 -5.60185 36162 ft 500 kts 45°
2026-05-01 15:14 44.95496 -5.43017 36164 ft 501 kts 46°
2026-05-01 15:14 45.02946 -5.32675 36154 ft 500 kts 46°
2026-05-01 15:15 45.12851 -5.18864 36171 ft 500 kts 46°
2026-05-01 15:16 45.22746 -5.04996 36165 ft 500 kts 46°
2026-05-01 15:18 45.35076 -4.87614 36170 ft 499 kts 46°
2026-05-01 15:19 45.44874 -4.73720 36178 ft 499 kts 46°
2026-05-01 15:19 45.52235 -4.63234 36173 ft 498 kts 46°
2026-05-01 15:20 45.59568 -4.52747 36182 ft 497 kts 46°
2026-05-01 15:21 45.64447 -4.45747 36189 ft 497 kts 46°
2026-05-01 15:21 45.69316 -4.38743 36197 ft 497 kts 46°
2026-05-01 15:22 45.76615 -4.28209 36188 ft 497 kts 46°
2026-05-01 15:22 45.81477 -4.21168 36194 ft 497 kts 46°
2026-05-01 15:23 45.86340 -4.14108 36193 ft 497 kts 46°
2026-05-01 15:23 45.91197 -4.07038 36203 ft 498 kts 46°
2026-05-01 15:24 45.96056 -3.99946 36198 ft 498 kts 46°
2026-05-01 15:24 46.00913 -3.92839 36186 ft 498 kts 46°
2026-05-01 15:25 46.05757 -3.85730 36198 ft 497 kts 46°
2026-05-01 15:25 46.10598 -3.78609 36200 ft 497 kts 46°
2026-05-01 15:26 46.15430 -3.71480 36204 ft 497 kts 46°
2026-05-01 15:26 46.20260 -3.64336 36205 ft 497 kts 46°
2026-05-01 15:27 46.25085 -3.57179 36194 ft 497 kts 46°
2026-05-01 15:28 46.32267 -3.46492 36210 ft 496 kts 46°
2026-05-01 15:28 46.37067 -3.39324 36208 ft 496 kts 46°
2026-05-01 15:29 46.44251 -3.28561 36216 ft 495 kts 46°
2026-05-01 15:30 46.53809 -3.14174 36216 ft 494 kts 46°
2026-05-01 15:31 46.61673 -2.97962 36215 ft 492 kts 62°
2026-05-01 15:31 46.65040 -2.89296 36216 ft 492 kts 61°
2026-05-01 15:32 46.71883 -2.72044 36207 ft 491 kts 60°
2026-05-01 15:34 46.82091 -2.46251 36217 ft 490 kts 60°